Location: Franzen
(48.6167°N, 15.3833°E)
Time: 13:44:13
(UTC+00:00)

Cosmos 1763 Rocket - Pass Details

Date: 22 April 2021
Orbit: 733 x 779 km, 74.0° (Epoch: 16 May)

Event Time Altitude Azimuth Distance (km) Brightness Sun altitude
Rises 20:56:00 0° 332° (NNW) 3,176 8.2 -23.3°
Reaches altitude 10° 20:58:25 10° 327° (NNW) 2,247 7.0 -23.5°
Maximum altitude 21:03:17 49° 254° (WSW) 949 4.0 -23.9°
Enters shadow 21:04:17 42° 219° (SW) 1,037 4.0 -24.0°
